DW4174 Weather Reports


time (UTC)temp
F
wind
direction
speed
knots
gust
knots
rain 1hr
in
rain 24hr
in
rain mn
in
humidity
%
barometer
mb
20260505051505 74 166 4.3 8.7 0.00 0.00 0.00 32 1010.5
20260505050605 74 175 4.3 9.6 0.00 0.00 0.00 32 1010.4
20260505041205 74 278 3.5 5.2 0.00 0.00 0.00 43 1010.1
20260505035405 74 264 1.7 6.1 0.00 0.00 0.00 43 1010.2
20260505033605 74 246 3.5 6.1 0.00 0.00 0.00 42 1009.8
20260505032706 75 273 3.5 6.1 0.00 0.00 0.00 42 1009.7
20260505030006 75 276 3.5 7.0 0.00 0.00 0.00 40 1009.3
20260505025105 75 274 5.2 7.8 0.00 0.00 0.00 40 1009.3
20260505024205 75 258 3.5 8.7 0.00 0.00 0.00 40 1009.4
20260505023305 76 270 4.3 6.1 0.00 0.00 0.00 39 1009.2
20260505022405 76 271 3.5 7.8 0.00 0.00 0.00 38 1009.3
20260505021506 76 250 3.5 6.1 0.00 0.00 0.00 37 1009.1
20260505020605 76 267 3.5 6.1 0.00 0.00 0.00 37 1009.2
20260505015705 77 272 3.5 6.1 0.00 0.00 0.00 37 1009.2
20260505014805 77 276 3.5 6.1 0.00 0.00 0.00 37 1009.1
20260505013906 77 304 2.6 5.2 0.00 0.00 0.00 37 1008.8
20260505013007 77 299 2.6 6.1 0.00 0.00 0.00 36 1008.7
20260505012105 77 274 2.6 7.0 0.00 0.00 0.00 36 1008.9
20260505011205 78 284 2.6 6.1 0.00 0.00 0.00 36 1008.8
20260505005405 78 203 2.6 6.1 0.00 0.00 0.00 36 1008.9
20260505003605 78 310 1.7 2.6 0.00 0.00 0.00 37 1009.0
20260505001806 78 299 1.7 7.0 0.00 0.00 0.00 37 1009.1
20260505000905 78 292 3.5 6.1 0.00 0.00 0.00 36 1009.1
20260504235105 78 249 3.5 7.8 0.00 0.00 0.00 37 1009.5
20260504234205 79 267 1.7 7.0 0.00 0.00 0.00 36 1009.5
20260504233305 78 233 1.7 5.2 0.00 0.00 0.00 37 1009.4
20260504231505 78 294 2.6 7.0 0.00 0.00 0.00 37 1009.2
20260504230605 78 350 2.6 4.3 0.00 0.00 0.00 37 1009.4
20260504225705 78 350 2.6 5.2 0.00 0.00 0.00 37 1009.4
20260504223905 78 354 4.3 8.7 0.00 0.00 0.00 37 1009.6
20260504223007 78 296 5.2 10.4 0.00 0.00 0.00 37 1009.9
20260504222105 79 302 6.1 10.4 0.00 0.00 0.00 36 1009.8
20260504221205 78 321 7.0 11.3 0.00 0.00 0.00 36 1010.0
20260504220304 79 311 5.2 12.2 0.00 0.00 0.00 36 1010.0
20260504215405 79 298 3.5 12.2 0.00 0.00 0.00 36 1009.9
20260504214505 78 259 3.5 6.1 0.00 0.00 0.00 37 1010.2
20260504212705 78 271 6.1 9.6 0.00 0.00 0.00 37 1010.6
20260504210006 78 307 7.0 12.2 0.00 0.00 0.00 38 1010.8
20260504205104 79 299 7.0 13.0 0.00 0.00 0.00 37 1010.9
20260504204204 80 271 6.1 13.0 0.00 0.00 0.00 36 1011.0
20260504203305 81 267 2.6 10.4 0.00 0.00 0.00 34 1010.8
20260504202404 80 194 3.5 7.8 0.00 0.00 0.00 36 1010.8
20260504201505 79 208 2.6 8.7 0.00 0.00 0.00 37 1010.7
20260504200604 80 195 4.3 6.1 0.00 0.00 0.00 36 1010.8
20260504195706 78 293 2.6 8.7 0.00 0.00 0.00 38 1010.9
20260504194804 78 306 3.5 7.0 0.00 0.00 0.00 39 1010.8
20260504193904 78 278 7.0 10.4 0.00 0.00 0.00 39 1010.8
20260504193005 78 296 7.0 11.3 0.00 0.00 0.00 39 1011.3
20260504192105 78 294 7.0 13.0 0.00 0.00 0.00 40 1011.3
20260504191204 79 276 5.2 13.0 0.00 0.00 0.00 39 1011.2
20260504185405 78 316 5.2 8.7 0.00 0.00 0.00 40 1010.8
20260504184504 77 304 5.2 9.6 0.00 0.00 0.00 40 1010.8
20260504183604 77 313 6.1 10.4 0.00 0.00 0.00 40 1010.9
20260504182704 77 305 7.8 12.2 0.00 0.00 0.00 41 1011.3
20260504181804 77 293 7.0 12.2 0.00 0.00 0.00 42 1011.7
20260504180904 77 293 6.1 11.3 0.00 0.00 0.00 42 1011.7
20260504175104 76 292 3.5 6.1 0.00 0.00 0.00 44 1010.9
20260504173304 75 281 4.3 7.8 0.00 0.00 0.00 43 1010.8
20260504172404 76 290 5.2 8.7 0.00 0.00 0.00 42 1010.8
20260504171504 76 273 3.5 11.3 0.00 0.00 0.00 41 1011.1
20260504170604 78 241 3.5 9.6 0.00 0.00 0.00 33 1011.1
20260504160304 76 192 5.2 9.6 0.00 0.00 0.00 33 1011.3